Regional Weather Roundup
Issued by NWS

Home | Current Version | Previous Version | Graphics & Text | Print | Product List | Glossary On
Versions: 1 2 3 4 5 6 7 8 9 10 11 12 13 14 15 16 17 18 19 20 21 22 23 24 25 26 27 28 29 30 31 32 33 34 35 36 37 38 39 40 41 42 43 44 45 46 47 48 49 50
000
ASUS43 KOAX 060602
RWRNE

WEATHER ROUNDUP FOR NEBRASKA
NATIONAL WEATHER SERVICE OMAHA NE
100 AM CDT MON JUL 06 2015

NOTES: SATELLITE DATA IS BEING USED TO AUGMENT CLOUD COVER ABOVE
       12000 FEET.
       "FAIR" INDICATES FEW OR NO CLOUDS BELOW 12,000 FEET WITH NO
       SIGNIFICANT WEATHER AND/OR OBSTRUCTIONS TO VISIBILITY.

  * THESE STATIONS DO NOT REPORT WEATHER SUCH AS RAIN...SNOW OR FOG.

NEZ001>004-019>022-054>056-060700-
NEBRASKA PANHANDLE

CITY           SKY/WX    TMP DP  RH WIND       PRES   REMARKS
SCOTTSBLUFF    CLOUDY    63  59  87 N16       30.06R
6HR MIN TEMP:  63; 6HR MAX TEMP:  67; 6HR PCP:  0.08;

ALLIANCE       CLOUDY    63  61  93 N14       30.03R
6HR MIN TEMP:  63; 6HR MAX TEMP:  78; 6HR PCP:  0.27;

CHADRON        LGT RAIN  61  59  93 N13G23    30.05R
6HR MIN TEMP:  61; 6HR MAX TEMP:  78; 6HR PCP:  0.96;

KIMBALL          N/A    N/A N/A N/A MISG        N/A
SIDNEY         CLOUDY    65  62  90 N13       30.03R
6HR MIN TEMP:  65; 6HR MAX TEMP:  74; 6HR PCP:  0.01;

$$

NEZ057>060-069>072-079>082-060700-
SOUTHWEST NEBRASKA

CITY           SKY/WX    TMP DP  RH WIND       PRES   REMARKS
NORTH PLATTE   LGT RAIN  70  66  87 N22G30    29.91R
6HR MIN TEMP:  70; 6HR MAX TEMP:  91; 6HR PCP:  0.02;

IMPERIAL       CLOUDY    71  65  81 N17G26    29.91R
6HR MIN TEMP:  71; 6HR MAX TEMP:  84; 6HR PCP: TRACE;

MCCOOK         CLOUDY    77  64  64 W8        29.84R
6HR MIN TEMP:  74; 6HR MAX TEMP:  83; 6HR PCP:  0.09;

$$

NEZ005>010-023>029-035>040-094-060700-
NORTH CENTRAL NEBRASKA

CITY           SKY/WX    TMP DP  RH WIND       PRES   REMARKS
VALENTINE      HVY RAIN  65  64  97 W20G26    30.00R FOG
6HR MIN TEMP:  65; 6HR MAX TEMP:  88; 6HR PCP:  1.53;

AINSWORTH      RAIN      65  65 100 NW17G24   29.92R
BROKEN BOW     RAIN      70  67  90 N18G24    29.91R
6HR MIN TEMP:  70; 6HR MAX TEMP:  90; 6HR PCP:  0.09;

ORD            LGT RAIN  71  68  90 NW15      29.85F
6HR MIN TEMP:  71; 6HR MAX TEMP:  93; 6HR PCP: TRACE;

$$

NEZ041-046>049-061>064-073>077-083>087-060700-
SOUTH CENTRAL NEBRASKA

CITY           SKY/WX    TMP DP  RH WIND       PRES   REMARKS
GRAND ISLAND   CLOUDY    84  63  49 W13       29.84R
6HR MIN TEMP:  82; 6HR MAX TEMP:  93;

AURORA         CLOUDY    82  64  54 S9        29.80R
HASTINGS       CLOUDY    84  63  49 S9        29.82R
6HR MIN TEMP:  84; 6HR MAX TEMP:  94;

KEARNEY *      CLOUDY    79  64  61 N9        29.86R THUNDER
$$

NEZ011>018-030>034-042>045-060700-
NORTHEAST NEBRASKA

CITY           SKY/WX    TMP DP  RH WIND       PRES   REMARKS
NORFOLK        CLOUDY    81  72  74 S17G26    29.75S
6HR MIN TEMP:  81; 6HR MAX TEMP:  89;

BLAIR          CLOUDY    80  71  74 E9        29.82R
COLUMBUS *     CLOUDY    81  70  69 S12G18    29.75F
FREMONT        CLOUDY    80  61  53 SE13      29.78F
TEKAMAH        LGT RAIN  79  72  79 SE23G32   29.78S
6HR MIN TEMP:  79; 6HR MAX TEMP:  90; 6HR PCP: TRACE;

$$

NEZ050>053-065>068-078-088>093-060700-
SOUTHEAST NEBRASKA

CITY           SKY/WX    TMP DP  RH WIND       PRES   REMARKS
LINCOLN        CLOUDY    82  71  69 S14       29.80R
6HR MIN TEMP:  81; 6HR MAX TEMP:  91;

OMAHA EPPLEY   TSTM      79  75  87 E10       29.83R
6HR MIN TEMP:  78; 6HR MAX TEMP:  89; 6HR PCP:  0.30;

FALLS CITY     CLOUDY    83  73  72 S12G20    29.84R
6HR MIN TEMP:  82; 6HR MAX TEMP:  90;

$$

NEZ044-045-051>053-067-060700-
OMAHA AREA

CITY           SKY/WX    TMP DP  RH WIND       PRES   REMARKS
OMAHA EPPLEY   TSTM      79  75  87 E10       29.83R
6HR MIN TEMP:  78; 6HR MAX TEMP:  89; 6HR PCP:  0.30;

BLAIR          CLOUDY    80  71  74 E9        29.82R
FREMONT        CLOUDY    80  61  53 SE13      29.78F
OFFUTT AFB     CLOUDY    79  75  87 SE6       29.82S
$$



USA.gov is the U.S. government's official web portal to all federal, state and local government web resources and services.